Location: Leipzig
(51.3392°N, 12.3528°E)
Time: 08:11:15
(UTC+01:00)

ISS - Pass Details

Date: 06 January 2018
Orbit: 402 x 407 km, 51.6° (Epoch: 24 January)

Event Time Altitude Azimuth Distance (km) Brightness Sun altitude
Exits shadow 05:12:58 22° 82° (E) 953 -1.3 -27.2°
Drops below altitude 10° 05:14:17 10° 81° (E) 1,472 0.0 -26.9°
Sets 05:16:22 0° 80° (E) 2,335 1.2 -26.6°
